BTK7513 WIHH-WARR

Flight info

Callsign BTK7513
Flight time 0h 58m
Altitude 35000
Route CA T3 BA
Aircraft A320/M-SDE3FGHIRWY/LB1

Departure

Time 2026-05-05 03:13
Airport Halim Perdanakusuma International Airport (WIHH)

Arrival

Time 2026-05-05 04:11
Airport Juanda International Airport (WARR)
Time Latitude Longitude Altitude Speed Heading
2026-05-05 03:04 -6.26661 106.88495 95 ft 0 kts 336°
2026-05-05 03:06 -6.26681 106.88506 95 ft 4 kts 321°
2026-05-05 03:06 -6.26698 106.88526 94 ft 4 kts 290°
2026-05-05 03:06 -6.26701 106.88549 96 ft 2 kts 246°
2026-05-05 03:06 -6.26700 106.88550 94 ft 0 kts 245°
2026-05-05 03:09 -6.26701 106.88548 95 ft 2 kts 245°
2026-05-05 03:09 -6.26715 106.88519 95 ft 7 kts 245°
2026-05-05 03:09 -6.26750 106.88481 96 ft 8 kts 193°
2026-05-05 03:10 -6.26812 106.88502 94 ft 11 kts 155°
2026-05-05 03:10 -6.26891 106.88535 93 ft 13 kts 175°
2026-05-05 03:10 -6.26956 106.88472 92 ft 15 kts 245°
2026-05-05 03:10 -6.27004 106.88367 92 ft 18 kts 245°
2026-05-05 03:11 -6.27058 106.88249 95 ft 19 kts 245°
2026-05-05 03:11 -6.27118 106.88119 94 ft 22 kts 245°
2026-05-05 03:11 -6.27154 106.87982 95 ft 20 kts 273°
2026-05-05 03:11 -6.27184 106.87925 96 ft 13 kts 213°
2026-05-05 03:12 -6.27196 106.87952 95 ft 0 kts 65°
2026-05-05 03:12 -6.27194 106.87956 95 ft 3 kts 65°
2026-05-05 03:12 -6.27113 106.88130 94 ft 63 kts 65°
2026-05-05 03:13 -6.26834 106.88730 95 ft 123 kts 65°
2026-05-05 03:13 -6.26411 106.89640 102 ft 166 kts 64°
2026-05-05 03:13 -6.25947 106.90703 669 ft 168 kts 66°
2026-05-05 03:13 -6.25522 106.91786 1382 ft 167 kts 78°
2026-05-05 03:14 -6.25748 106.92923 1962 ft 173 kts 120°
2026-05-05 03:14 -6.26421 106.94006 2260 ft 193 kts 120°
2026-05-05 03:14 -6.27173 106.95219 2475 ft 217 kts 120°
2026-05-05 03:14 -6.28013 106.96584 2766 ft 241 kts 120°
2026-05-05 03:15 -6.28928 106.98080 3305 ft 258 kts 120°
2026-05-05 03:15 -6.29880 106.99640 3913 ft 265 kts 120°
2026-05-05 03:15 -6.30843 107.01223 4086 ft 266 kts 120°
2026-05-05 03:15 -6.31808 107.02832 4828 ft 269 kts 119°
2026-05-05 03:16 -6.32764 107.04453 5791 ft 271 kts 119°
2026-05-05 03:16 -6.33722 107.06091 6677 ft 274 kts 119°
2026-05-05 03:16 -6.34694 107.07752 7503 ft 278 kts 119°
2026-05-05 03:16 -6.35603 107.09304 8261 ft 281 kts 119°
2026-05-05 03:17 -6.36602 107.11005 9031 ft 285 kts 119°
2026-05-05 03:17 -6.37622 107.12732 9781 ft 289 kts 119°
2026-05-05 03:17 -6.38644 107.14463 10464 ft 296 kts 120°
2026-05-05 03:17 -6.39734 107.16309 10659 ft 318 kts 120°
2026-05-05 03:18 -6.40903 107.18292 10834 ft 340 kts 120°
2026-05-05 03:18 -6.42130 107.20372 11286 ft 349 kts 120°
2026-05-05 03:18 -6.43378 107.22486 11867 ft 354 kts 120°
2026-05-05 03:18 -6.44640 107.24621 12475 ft 357 kts 120°
2026-05-05 03:19 -6.47205 107.28957 13663 ft 364 kts 120°
2026-05-05 03:19 -6.48504 107.31153 14244 ft 367 kts 120°
2026-05-05 03:19 -6.49813 107.33368 14810 ft 370 kts 120°
2026-05-05 03:20 -6.51132 107.35606 15361 ft 373 kts 120°
2026-05-05 03:20 -6.52461 107.37859 15889 ft 376 kts 120°
2026-05-05 03:20 -6.53798 107.40130 16420 ft 379 kts 120°
2026-05-05 03:20 -6.55146 107.42420 16932 ft 382 kts 119°
2026-05-05 03:21 -6.56286 107.44838 17422 ft 385 kts 109°
2026-05-05 03:21 -6.56957 107.47445 17912 ft 387 kts 98°
2026-05-05 03:21 -6.57279 107.50138 18404 ft 389 kts 96°
2026-05-05 03:21 -6.57594 107.52851 18879 ft 392 kts 96°
2026-05-05 03:22 -6.57919 107.55584 19334 ft 395 kts 96°
2026-05-05 03:22 -6.58253 107.58337 19811 ft 397 kts 97°
2026-05-05 03:22 -6.58590 107.61099 20268 ft 400 kts 97°
2026-05-05 03:22 -6.58927 107.63882 20715 ft 402 kts 96°
2026-05-05 03:23 -6.59263 107.66688 21147 ft 405 kts 96°
2026-05-05 03:23 -6.59601 107.69511 21561 ft 408 kts 96°
2026-05-05 03:23 -6.59940 107.72358 21963 ft 411 kts 96°
2026-05-05 03:23 -6.60277 107.75219 22353 ft 413 kts 96°
2026-05-05 03:24 -6.60618 107.78094 22720 ft 415 kts 96°
2026-05-05 03:24 -6.60965 107.80985 23100 ft 417 kts 96°
2026-05-05 03:24 -6.61313 107.83891 23469 ft 420 kts 96°
2026-05-05 03:24 -6.61658 107.86814 23801 ft 422 kts 96°
2026-05-05 03:25 -6.62002 107.89754 24138 ft 424 kts 96°
2026-05-05 03:25 -6.62351 107.92709 24462 ft 427 kts 96°
2026-05-05 03:25 -6.62697 107.95638 24777 ft 429 kts 96°
2026-05-05 03:25 -6.63053 107.98625 25083 ft 431 kts 96°
2026-05-05 03:26 -6.63412 108.01628 25388 ft 434 kts 96°
2026-05-05 03:26 -6.63770 108.04648 25682 ft 436 kts 96°
2026-05-05 03:26 -6.64128 108.07685 25971 ft 439 kts 96°
2026-05-05 03:26 -6.64485 108.10740 26266 ft 441 kts 96°
2026-05-05 03:27 -6.64844 108.13809 26547 ft 443 kts 96°
2026-05-05 03:27 -6.65206 108.16894 26819 ft 445 kts 96°
2026-05-05 03:27 -6.65570 108.19994 27088 ft 448 kts 96°
2026-05-05 03:27 -6.65938 108.23111 27351 ft 450 kts 96°
2026-05-05 03:28 -6.66306 108.26240 27617 ft 452 kts 96°
2026-05-05 03:28 -6.66676 108.29385 27889 ft 454 kts 96°
2026-05-05 03:28 -6.67046 108.32546 28151 ft 456 kts 96°
2026-05-05 03:28 -6.67422 108.35720 28414 ft 458 kts 96°
2026-05-05 03:29 -6.67801 108.38910 28680 ft 460 kts 96°
2026-05-05 03:29 -6.68180 108.42104 28946 ft 462 kts 96°
2026-05-05 03:29 -6.68556 108.45320 29195 ft 464 kts 96°
2026-05-05 03:29 -6.68931 108.48554 29495 ft 465 kts 96°
2026-05-05 03:30 -6.69307 108.51784 29863 ft 465 kts 96°
2026-05-05 03:30 -6.69684 108.55002 30242 ft 464 kts 96°
2026-05-05 03:30 -6.70085 108.58218 30624 ft 463 kts 97°
2026-05-05 03:30 -6.70547 108.61420 31012 ft 462 kts 98°
2026-05-05 03:31 -6.71049 108.64609 31392 ft 461 kts 99°
2026-05-05 03:31 -6.71567 108.67795 31775 ft 461 kts 99°
2026-05-05 03:31 -6.72084 108.70973 32165 ft 460 kts 99°
2026-05-05 03:31 -6.72592 108.74145 32548 ft 459 kts 98°
2026-05-05 03:32 -6.73091 108.77315 32929 ft 458 kts 98°
2026-05-05 03:32 -6.73578 108.80472 33321 ft 457 kts 98°
2026-05-05 03:32 -6.74058 108.83630 33708 ft 456 kts 98°
2026-05-05 03:32 -6.74535 108.86783 34070 ft 456 kts 98°
2026-05-05 03:33 -6.75014 108.89932 34418 ft 455 kts 98°
2026-05-05 03:33 -6.75494 108.93078 34765 ft 455 kts 98°
2026-05-05 03:33 -6.75977 108.96225 34909 ft 456 kts 98°
2026-05-05 03:33 -6.76465 108.99392 34935 ft 460 kts 98°
2026-05-05 03:34 -6.77445 109.05764 34932 ft 461 kts 98°
2026-05-05 03:34 -6.78419 109.12143 34933 ft 461 kts 98°
2026-05-05 03:35 -6.79389 109.18521 34923 ft 461 kts 98°
2026-05-05 03:35 -6.80358 109.24902 34925 ft 462 kts 98°
2026-05-05 03:36 -6.81324 109.31284 34925 ft 462 kts 98°
2026-05-05 03:36 -6.82304 109.37671 34925 ft 462 kts 98°
2026-05-05 03:37 -6.83280 109.44060 34923 ft 462 kts 98°
2026-05-05 03:37 -6.84251 109.50445 34925 ft 462 kts 98°
2026-05-05 03:38 -6.85223 109.56838 34927 ft 462 kts 98°
2026-05-05 03:38 -6.86192 109.63229 34933 ft 462 kts 98°
2026-05-05 03:39 -6.87155 109.69626 34929 ft 462 kts 98°
2026-05-05 03:39 -6.88124 109.76034 34940 ft 463 kts 98°
2026-05-05 03:40 -6.89098 109.82438 34934 ft 463 kts 98°
2026-05-05 03:40 -6.90070 109.88843 34934 ft 463 kts 98°
2026-05-05 03:41 -6.91036 109.95250 34936 ft 463 kts 98°
2026-05-05 03:41 -6.91999 110.01613 34931 ft 463 kts 98°
2026-05-05 03:42 -6.92976 110.08070 34933 ft 463 kts 98°
2026-05-05 03:42 -6.93929 110.14443 34932 ft 464 kts 98°
2026-05-05 03:43 -6.94897 110.20917 34927 ft 465 kts 98°
2026-05-05 03:43 -6.95869 110.27351 34922 ft 465 kts 98°
2026-05-05 03:44 -6.96834 110.33742 34917 ft 465 kts 98°
2026-05-05 03:44 -6.97523 110.40200 34914 ft 465 kts 90°
2026-05-05 03:45 -6.97628 110.46702 34912 ft 465 kts 90°
2026-05-05 03:45 -6.97742 110.53206 34909 ft 464 kts 91°
2026-05-05 03:46 -6.97855 110.59705 34907 ft 464 kts 91°
2026-05-05 03:46 -6.97978 110.66197 34905 ft 464 kts 91°
2026-05-05 03:47 -6.98097 110.72692 34904 ft 464 kts 91°
2026-05-05 03:47 -6.98207 110.79188 34904 ft 464 kts 91°
2026-05-05 03:48 -6.98316 110.85682 34903 ft 464 kts 91°
2026-05-05 03:48 -6.98427 110.92179 34660 ft 464 kts 91°
2026-05-05 03:49 -6.98484 110.95427 34413 ft 464 kts 91°
2026-05-05 03:49 -6.98540 110.98677 34161 ft 465 kts 91°
2026-05-05 03:49 -6.98597 111.01934 33529 ft 468 kts 91°
2026-05-05 03:49 -6.98654 111.05232 32524 ft 474 kts 91°
2026-05-05 03:50 -6.98713 111.08568 31509 ft 480 kts 91°
2026-05-05 03:50 -6.98772 111.11940 30643 ft 482 kts 90°
2026-05-05 03:50 -6.98830 111.15290 30089 ft 475 kts 90°
2026-05-05 03:50 -6.98888 111.18601 29455 ft 471 kts 90°
2026-05-05 03:51 -6.98946 111.21875 28820 ft 467 kts 91°
2026-05-05 03:51 -6.98999 111.25131 28186 ft 462 kts 91°
2026-05-05 03:51 -6.99047 111.28341 27553 ft 457 kts 91°
2026-05-05 03:51 -6.99095 111.31525 26936 ft 452 kts 91°
2026-05-05 03:52 -6.99142 111.34673 26317 ft 448 kts 91°
2026-05-05 03:52 -6.99189 111.37789 25714 ft 443 kts 91°
2026-05-05 03:52 -6.99286 111.40870 25114 ft 438 kts 95°
2026-05-05 03:52 -6.99815 111.43868 24525 ft 433 kts 105°
2026-05-05 03:53 -7.00634 111.46722 23972 ft 428 kts 106°
2026-05-05 03:53 -7.01455 111.49584 23410 ft 423 kts 106°
2026-05-05 03:53 -7.02259 111.52415 22879 ft 418 kts 106°
2026-05-05 03:53 -7.03052 111.55216 22355 ft 414 kts 106°
2026-05-05 03:54 -7.03836 111.57988 21845 ft 410 kts 106°
2026-05-05 03:54 -7.04610 111.60734 21349 ft 406 kts 106°
2026-05-05 03:54 -7.05376 111.63458 20847 ft 402 kts 106°
2026-05-05 03:54 -7.06136 111.66156 20343 ft 399 kts 106°
2026-05-05 03:55 -7.06891 111.68828 19832 ft 395 kts 106°
2026-05-05 03:55 -7.07643 111.71475 19312 ft 392 kts 106°
2026-05-05 03:55 -7.08388 111.74101 18790 ft 388 kts 106°
2026-05-05 03:55 -7.09126 111.76704 18261 ft 385 kts 106°
2026-05-05 03:56 -7.09857 111.79283 17726 ft 382 kts 106°
2026-05-05 03:56 -7.10583 111.81846 17183 ft 379 kts 106°
2026-05-05 03:56 -7.11302 111.84390 16640 ft 376 kts 106°
2026-05-05 03:56 -7.12009 111.86897 16358 ft 366 kts 106°
2026-05-05 03:57 -7.12691 111.89318 16224 ft 353 kts 106°
2026-05-05 03:57 -7.13348 111.91652 16105 ft 340 kts 106°
2026-05-05 03:57 -7.13771 111.93155 16026 ft 333 kts 106°
2026-05-05 03:57 -7.14393 111.95364 15894 ft 323 kts 106°
2026-05-05 03:58 -7.15007 111.97536 15776 ft 314 kts 106°
2026-05-05 03:58 -7.15592 111.99592 15648 ft 305 kts 108°
2026-05-05 03:58 -7.16383 112.01554 15430 ft 300 kts 113°
2026-05-05 03:58 -7.17212 112.03481 15087 ft 300 kts 113°
2026-05-05 03:59 -7.18039 112.05406 14747 ft 299 kts 113°
2026-05-05 03:59 -7.18861 112.07326 14426 ft 298 kts 113°
2026-05-05 03:59 -7.19680 112.09238 14113 ft 297 kts 113°
2026-05-05 03:59 -7.20495 112.11140 13794 ft 295 kts 113°
2026-05-05 04:00 -7.21307 112.13032 13468 ft 292 kts 113°
2026-05-05 04:00 -7.22108 112.14901 12923 ft 290 kts 113°
2026-05-05 04:00 -7.22902 112.16757 12378 ft 288 kts 113°
2026-05-05 04:00 -7.23688 112.18596 11835 ft 285 kts 113°
2026-05-05 04:01 -7.24469 112.20425 11292 ft 283 kts 112°
2026-05-05 04:01 -7.25242 112.22238 10757 ft 281 kts 113°
2026-05-05 04:01 -7.26010 112.24036 10234 ft 278 kts 113°
2026-05-05 04:01 -7.26772 112.25821 9715 ft 276 kts 113°
2026-05-05 04:02 -7.27525 112.27586 9251 ft 276 kts 113°
2026-05-05 04:02 -7.28280 112.29358 8983 ft 274 kts 113°
2026-05-05 04:02 -7.29035 112.31130 8659 ft 274 kts 113°
2026-05-05 04:02 -7.29721 112.32907 8386 ft 272 kts 104°
2026-05-05 04:03 -7.30110 112.34768 8088 ft 271 kts 101°
2026-05-05 04:03 -7.30480 112.36623 7809 ft 269 kts 101°
2026-05-05 04:03 -7.30846 112.38453 7365 ft 265 kts 101°
2026-05-05 04:03 -7.31209 112.40264 6843 ft 263 kts 101°
2026-05-05 04:04 -7.31570 112.42066 6336 ft 261 kts 101°
2026-05-05 04:04 -7.31928 112.43850 5858 ft 258 kts 101°
2026-05-05 04:04 -7.32282 112.45604 5400 ft 253 kts 101°
2026-05-05 04:04 -7.32629 112.47316 5181 ft 243 kts 102°
2026-05-05 04:05 -7.32959 112.48946 5117 ft 232 kts 101°
2026-05-05 04:05 -7.33274 112.50508 5034 ft 224 kts 101°
2026-05-05 04:05 -7.33583 112.52035 4955 ft 222 kts 101°
2026-05-05 04:05 -7.33884 112.53533 4875 ft 212 kts 102°
2026-05-05 04:06 -7.34140 112.54993 4507 ft 216 kts 99°
2026-05-05 04:06 -7.34381 112.56504 4108 ft 220 kts 99°
2026-05-05 04:06 -7.34625 112.58020 3790 ft 217 kts 99°
2026-05-05 04:06 -7.34864 112.59494 3522 ft 210 kts 99°
2026-05-05 04:07 -7.35096 112.60915 3239 ft 200 kts 99°
2026-05-05 04:07 -7.35312 112.62244 2969 ft 185 kts 99°
2026-05-05 04:07 -7.35511 112.63464 2747 ft 168 kts 99°
2026-05-05 04:07 -7.35692 112.64579 2528 ft 155 kts 100°
2026-05-05 04:08 -7.35863 112.65627 2325 ft 149 kts 99°
2026-05-05 04:08 -7.36029 112.66649 2129 ft 148 kts 99°
2026-05-05 04:08 -7.36192 112.67652 1937 ft 146 kts 99°
2026-05-05 04:08 -7.36357 112.68671 1741 ft 145 kts 99°
2026-05-05 04:09 -7.36521 112.69674 1539 ft 145 kts 99°
2026-05-05 04:09 -7.36683 112.70675 1356 ft 144 kts 99°
2026-05-05 04:09 -7.36845 112.71673 1164 ft 144 kts 99°
2026-05-05 04:09 -7.37007 112.72667 973 ft 144 kts 99°
2026-05-05 04:10 -7.37167 112.73660 785 ft 143 kts 99°
2026-05-05 04:10 -7.37325 112.74652 577 ft 143 kts 98°
2026-05-05 04:10 -7.37482 112.75640 393 ft 143 kts 99°
2026-05-05 04:10 -7.37645 112.76626 202 ft 143 kts 99°
2026-05-05 04:11 -7.37807 112.77602 31 ft 143 kts 99°
2026-05-05 04:11 -7.37951 112.78494 10 ft 109 kts 99°
2026-05-05 04:11 -7.38045 112.79073 11 ft 59 kts 99°
2026-05-05 04:11 -7.38088 112.79362 9 ft 37 kts 99°
2026-05-05 04:12 -7.38113 112.79564 9 ft 25 kts 84°
2026-05-05 04:12 -7.38072 112.79687 10 ft 10 kts 69°
2026-05-05 04:12 -7.38038 112.79757 9 ft 12 kts 44°
2026-05-05 04:12 -7.37949 112.79782 9 ft 15 kts
2026-05-05 04:13 -7.37841 112.79799 9 ft 14 kts
2026-05-05 04:13 -7.37752 112.79811 9 ft 9 kts 350°
2026-05-05 04:13 -7.37726 112.79753 9 ft 11 kts 279°
2026-05-05 04:13 -7.37713 112.79672 9 ft 12 kts 279°
2026-05-05 04:14 -7.37703 112.79609 11 ft 6 kts 279°
2026-05-05 04:14 -7.37678 112.79583 9 ft 6 kts
2026-05-05 04:14 -7.37636 112.79588 9 ft 6 kts
2026-05-05 04:14 -7.37612 112.79592 9 ft 1 kts
2026-05-05 04:15 -7.37607 112.79593 9 ft 0 kts